Regional Weather Roundup
Issued by NWS

Home | Current Version | Previous Version | Graphics & Text | Print | Product List | Glossary On
Versions: 1 2 3 4 5 6 7 8 9 10 11 12 13 14 15 16 17 18 19 20 21 22 23 24 25 26 27 28 29 30 31 32 33 34 35 36 37 38 39 40 41 42 43 44 45 46 47 48 49 50
000
ASUS43 KTOP 050008
RWRKS

WEATHER ROUNDUP FOR KANSAS
NATIONAL WEATHER SERVICE GOODLAND KS
700 PM CDT TUE AUG 04 2015

NOTE:  "FAIR" INDICATES FEW OR NO CLOUDS BELOW 12,000 FEET WITH NO
SIGNIFICANT WEATHER AND/OR OBSTRUCTIONS TO VISIBILITY.

KSZ001>006-013>018-027>032-041>047-050100-
NORTHWEST KANSAS

CITY           SKY/WX    TMP DP  RH WIND       PRES   REMARKS
GOODLAND       MOSUNNY   79  64  60 NE14      29.98S
6HR MIN TEMP:  79; 6HR MAX TEMP:  91;

HAYS           PTSUNNY   84  63  48 SE13      29.90F
HILL CITY      CLOUDY    70  67  90 SE6       29.93F
6HR MIN TEMP:  69; 6HR MAX TEMP:  90; 6HR PCP:  0.29;

RUSSELL        PTSUNNY   84  65  52 SE12      29.90F
6HR MIN TEMP:  75; 6HR MAX TEMP:  87; 6HR PCP: TRACE;

$$

KSZ061>065-074>080-084>089-050100-
SOUTHWEST KANSAS

CITY           SKY/WX    TMP DP  RH WIND       PRES   REMARKS
DODGE CITY     SUNNY     85  62  46 SE15      29.90F
6HR MIN TEMP:  82; 6HR MAX TEMP:  89;

ELKHART          N/A     89  66  46 SE8         N/A
GARDEN CITY    MOSUNNY   86  62  44 SE14      29.89R
6HR MIN TEMP:  82; 6HR MAX TEMP:  89; 6HR PCP: TRACE;

GREAT BEND     SUNNY     82  66  57 SE13      29.90S
LIBERAL        SUNNY     90  64  43 S14       29.90S
PRATT          SUNNY     82  66  57 S8        29.93S
$$

KSZ066>073-081>083-090>101-050100-
SOUTHEAST KANSAS

CITY           SKY/WX    TMP DP  RH WIND       PRES   REMARKS
CHANUTE        CLOUDY    80  66  62 CALM      29.95R
6HR MIN TEMP:  76; 6HR MAX TEMP:  83; 6HR PCP: TRACE;

COFFEYVILLE    CLOUDY    77  72  84 S7        29.93S
6HR MIN TEMP:  74; 6HR MAX TEMP:  80; 6HR PCP:  0.08;

HUTCHINSON     PTSUNNY   84  68  58 S13       29.92S
6HR MIN TEMP:  75; 6HR MAX TEMP:  86; 6HR PCP: TRACE;

MEDICINE LODGE   N/A     85  71  63 E7        29.89S
NEWTON         MOSUNNY   81  64  57 S10       29.96R
PARSONS        CLOUDY    77  72  84 CALM      29.94S
6HR MIN TEMP:  74; 6HR MAX TEMP:  83; 6HR PCP:  0.10;

WICHITA INTL   MOSUNNY   80  69  69 S14       29.92F
6HR MIN TEMP:  78; 6HR MAX TEMP:  83; 6HR PCP: TRACE;

WICHITA JABRA  MOSUNNY   80  69  69 S16       29.92F
6HR MIN TEMP:  73; 6HR MAX TEMP:  83; 6HR PCP: TRACE;

WICHITA MCCONL SUNNY     81  68  65 SE12      29.93S
$$

KSZ007>012-019>026-033>040-048>060-102>105-050100-
NORTHEAST KANSAS

CITY           SKY/WX    TMP DP  RH WIND       PRES   REMARKS
CONCORDIA      CLOUDY    73  70  90 E7        29.92F
6HR MIN TEMP:  72; 6HR MAX TEMP:  84; 6HR PCP:  0.07;

EMPORIA        CLOUDY    80  65  59 E6        29.95S
6HR MIN TEMP:  76; 6HR MAX TEMP:  83; 6HR PCP:  0.01;

LAWRENCE       LGT RAIN  71  69  93 NE5       30.01S FOG
6HR MIN TEMP:  71; 6HR MAX TEMP:  86; 6HR PCP:  1.23;

MANHATTAN      CLOUDY    76  72  87 E5        29.94F
6HR MIN TEMP:  75; 6HR MAX TEMP:  90; 6HR PCP:  0.25;

MARYSVILLE     CLOUDY    73  70  88 S6        29.94F
OLATHE IND     TSTM      71  71 100 NE7       30.02S FOG
6HR MIN TEMP:  70; 6HR MAX TEMP:  86; 6HR PCP:  1.19;

OLATHE EXE     TSTM      71  70  96 NE8       30.03R FOG
6HR MIN TEMP:  69; 6HR MAX TEMP:  83; 6HR PCP:  0.40;

SALINA         CLOUDY    85  68  56 SE9       29.91F
6HR MIN TEMP:  76; 6HR MAX TEMP:  88; 6HR PCP:  0.03;

TOPEKA BILLARD LGT RAIN  73  72  96 E9        29.98F
6HR MIN TEMP:  70; 6HR MAX TEMP:  88; 6HR PCP:  1.12;

TOPEKA FORBES  LGT RAIN  75  72  90 E8        29.98F
6HR MIN TEMP:  72; 6HR MAX TEMP:  90;

$$


USA.gov is the U.S. government's official web portal to all federal, state and local government web resources and services.